F3825 Weather Reports


time (UTC)temp
F
wind
direction
speed
knots
gust
knots
rain 1hr
in
rain 24hr
in
rain mn
in
humidity
%
barometer
mb
20260509063105 72 25 0.0 1.7 0.00 0.00 0.00 88 1008.0
20260509060926 72 78 0.0 2.6 0.00 0.00 0.00 87 1007.5
20260509055948 72 322 0.0 3.5 0.00 0.00 0.00 86 1007.4
20260509054919 73 17 0.0 3.5 0.00 0.00 0.00 86 1007.6
20260509053923 73 27 0.0 3.5 0.00 0.00 0.00 85 1007.1
20260509052910 73 355 0.0 3.5 0.00 0.00 0.00 85 1006.7
20260509051933 73 52 0.0 0.9 0.00 0.00 0.00 85 1006.6
20260509050907 73 332 0.0 0.0 0.00 0.00 0.00 85 1006.6
20260509045850 73 325 0.0 0.0 0.00 0.00 0.00 84 1006.6
20260509044907 73 355 0.0 0.9 0.00 0.00 0.00 84 1006.6
20260509042734 73 329 0.0 1.7 0.00 0.00 0.00 84 1006.9
20260509041725 73 333 0.0 1.7 0.00 0.00 0.00 84 1007.0
20260509040715 73 355 0.0 0.0 0.00 0.00 0.00 84 1007.1
20260509035642 73 334 0.0 0.0 0.00 0.00 0.00 84 1007.2
20260509034628 73 329 0.0 0.9 0.00 0.00 0.00 84 1006.9
20260509033617 73 355 0.0 0.0 0.00 0.00 0.00 84 1006.7
20260509032637 73 0 0.0 0.0 0.00 0.00 0.00 84 1006.6
20260509030512 73 344 0.0 0.0 0.00 0.00 0.00 82 1006.6
20260509025441 73 344 0.0 0.0 0.00 0.00 0.00 82 1006.7
20260509024459 74 344 0.0 0.0 0.00 0.00 0.00 81 1006.6
20260509023517 74 344 0.0 0.9 0.00 0.00 0.00 81 1006.4
20260509021351 75 338 0.0 0.0 0.00 0.00 0.00 80 1006.1
20260509020344 75 293 0.0 3.5 0.00 0.00 0.00 79 1006.1
20260509015337 75 300 0.0 3.5 0.00 0.00 0.00 79 1006.0
20260509014341 76 314 0.0 3.5 0.00 0.00 0.00 78 1005.9
20260509013346 76 346 0.0 3.5 0.00 0.00 0.00 78 1005.8
20260509012325 76 311 0.0 2.6 0.00 0.00 0.00 78 1005.8
20260509011254 76 346 0.0 3.5 0.00 0.00 0.00 77 1005.8
20260509010300 77 330 0.0 0.9 0.00 0.00 0.00 77 1005.8
20260509005244 77 294 0.0 3.5 0.00 0.00 0.00 77 1005.8
20260509002030 78 254 0.0 3.5 0.00 0.00 0.00 76 1005.8
20260509001055 78 286 0.0 0.0 0.00 0.00 0.00 75 1005.8
20260509000026 78 279 0.0 0.0 0.00 0.00 0.00 75 1005.8
20260508233942 78 321 0.0 4.3 0.00 0.00 0.00 74 1006.0
20260508232958 79 311 0.0 0.0 0.00 0.00 0.00 74 1005.8
20260508232011 78 282 0.0 7.0 0.00 0.00 0.00 73 1005.8
20260508230958 78 292 0.0 7.0 0.00 0.00 0.00 73 1005.7
20260508225924 78 296 0.0 1.7 0.00 0.00 0.00 73 1005.9
20260508224850 78 337 0.9 4.3 0.00 0.00 0.00 73 1005.9
20260508223909 79 264 0.9 5.2 0.00 0.00 0.00 73 1005.7
20260508222847 78 292 0.9 5.2 0.00 0.00 0.00 73 1005.7
20260508221851 78 261 0.0 7.0 0.00 0.00 0.00 73 1005.9
20260508220856 78 294 0.9 7.0 0.00 0.00 0.00 73 1005.9
20260508215832 78 254 0.9 4.3 0.00 0.00 0.00 73 1005.8
20260508214834 79 322 0.0 4.3 0.00 0.00 0.00 73 1006.2
20260508213859 79 289 0.0 7.0 0.00 0.00 0.00 73 1006.1
20260508212833 79 281 0.0 7.0 0.00 0.00 0.00 72 1006.2
20260508211839 79 211 0.0 5.2 0.00 0.00 0.00 72 1006.4
20260508210828 79 279 0.9 6.1 0.00 0.00 0.00 72 1006.7
20260508205853 79 235 0.9 6.1 0.00 0.00 0.00 72 1006.8
20260508204838 79 238 1.7 7.8 0.00 0.00 0.00 71 1007.0
20260508203813 79 297 1.7 7.8 0.00 0.00 0.00 71 1007.1
20260508202806 79 295 0.9 5.2 0.00 0.00 0.00 71 1007.1
20260508201739 79 288 0.0 5.2 0.00 0.00 0.00 71 1007.4
20260508200746 78 269 0.0 0.0 0.00 0.00 0.00 73 1007.6
20260508193449 77 292 0.9 4.3 0.00 0.00 0.00 71 1008.1
20260508192453 77 312 0.0 4.3 0.00 0.00 0.00 71 1008.1
20260508191456 77 303 0.9 3.5 0.00 0.00 0.00 71 1008.2
20260508190436 77 302 0.9 5.2 0.00 0.00 0.00 73 1008.1
20260508185420 76 248 0.9 5.2 0.00 0.00 0.00 72 1008.3
20260508183324 76 299 0.0 3.5 0.00 0.00 0.00 71 1008.6
20260508182257 76 260 0.0 3.5 0.00 0.00 0.00 71 1008.9
20260508181309 76 267 0.0 3.5 0.00 0.00 0.00 70 1009.0
20260508180305 76 136 0.0 3.5 0.00 0.00 0.00 70 1009.2
20260508175306 75 280 0.0 4.3 0.00 0.00 0.00 72 1009.3
20260508173136 74 285 0.9 5.2 0.00 0.00 0.00 72 1009.5
20260508172159 73 201 0.0 4.3 0.00 0.00 0.00 74 1009.4
20260508171157 72 157 0.0 3.5 0.00 0.00 0.00 73 1009.8
20260508170125 71 155 0.0 3.5 0.00 0.00 0.00 74 1009.8
20260508165131 71 256 0.0 1.7 0.00 0.00 0.00 73 1009.9
20260508162949 71 279 0.0 1.7 0.00 0.00 0.00 73 1010.3
20260508162014 71 279 0.0 1.7 0.00 0.00 0.00 73 1010.5
20260508161017 70 194 0.0 0.9 0.00 0.00 0.00 74 1010.4
20260508160009 70 342 0.0 0.9 0.00 0.00 0.00 74 1010.7
20260508154936 69 181 0.0 0.9 0.00 0.00 0.00 76 1010.5
20260508153948 68 180 0.0 0.0 0.00 0.00 0.00 75 1010.7
20260508152937 67 261 0.0 0.9 0.00 0.00 0.00 76 1010.7
20260508151918 67 254 0.0 2.6 0.00 0.00 0.00 77 1010.9
20260508150904 67 264 0.0 1.7 0.00 0.00 0.00 77 1011.0
20260508145856 66 269 0.0 0.0 0.00 0.00 0.00 77 1011.1
20260508143747 65 295 0.0 3.5 0.00 0.00 0.00 78 1010.7
20260508141633 65 294 0.0 2.6 0.00 0.00 0.00 78 1011.1
20260508140601 64 284 0.0 1.7 0.00 0.00 0.00 78 1011.0
20260508135616 64 304 0.0 2.6 0.00 0.00 0.00 78 1011.1
20260508134628 64 257 0.0 1.7 0.00 0.00 0.00 78 1011.3
20260508133627 63 146 0.0 0.9 0.00 0.00 0.00 78 1011.3
20260508132610 63 146 0.0 1.7 0.00 0.00 0.00 78 1011.2
20260508131626 63 265 0.0 0.0 0.00 0.00 0.00 78 1011.2
20260508125519 62 265 0.0 0.9 0.00 0.00 0.00 79 1011.2
20260508124511 62 156 0.0 0.0 0.00 0.00 0.00 79 1011.1
20260508123500 61 142 0.0 0.9 0.00 0.00 0.00 79 1011.6
20260508122455 61 141 0.0 0.0 0.00 0.00 0.00 79 1011.6
20260508121448 61 142 0.0 0.0 0.00 0.00 0.00 79 1011.4
20260508120435 61 144 0.0 0.9 0.00 0.00 0.00 79 1011.6
20260508115434 61 144 0.0 1.7 0.00 0.00 0.00 79 1012.0
20260508114404 61 143 0.0 3.5 0.00 0.00 0.00 79 1012.0
20260508112200 61 158 0.0 1.7 0.00 0.00 0.00 79 1012.0
20260508111134 61 242 0.0 3.5 0.00 0.00 0.00 79 1011.7
20260508110139 61 187 0.0 3.5 0.00 0.00 0.00 78 1011.8
20260508105123 61 209 0.0 3.5 0.00 0.00 0.00 78 1011.6
20260508104120 61 203 0.0 3.5 0.00 0.00 0.00 78 1011.5
20260508103134 61 177 0.0 3.5 0.00 0.00 0.00 78 1011.5
20260508102117 61 207 0.0 3.5 0.00 0.00 0.00 78 1011.8
20260508101107 61 159 0.0 3.5 0.00 0.00 0.00 78 1012.1
20260508100108 61 190 0.0 2.6 0.00 0.00 0.00 78 1012.0
20260508095050 61 204 0.0 2.6 0.00 0.00 0.00 78 1012.2
20260508093019 61 201 0.0 0.9 0.00 0.00 0.00 78 1011.9
20260508092007 61 204 0.0 0.9 0.00 0.00 0.00 78 1011.8
20260508083512 62 259 0.0 0.0 0.00 0.00 0.00 77 1011.7
20260508082458 62 259 0.0 0.0 0.00 0.00 0.00 77 1011.8
20260508081427 62 259 0.0 0.0 0.00 0.00 0.00 77 1011.7
20260508080424 62 257 0.0 0.0 0.00 0.00 0.00 77 1011.6
20260508075448 61 257 0.0 0.0 0.00 0.00 0.00 77 1011.7
20260508074447 61 258 0.0 0.0 0.00 0.00 0.00 78 1011.5
20260508073450 61 258 0.0 0.0 0.00 0.00 0.00 78 1011.4
20260508072450 61 250 0.0 0.0 0.00 0.00 0.00 79 1011.6
20260508071451 61 260 0.0 1.7 0.00 0.00 0.00 79 1011.5
20260508070418 61 180 0.0 0.9 0.00 0.00 0.00 79 1012.1
20260508064323 60 177 0.0 0.0 0.00 0.00 0.00 80 1012.2